Location: Lalanga
(4.5882°N, 32.9072°E)
Time: 15:20:44
(UTC+00:00)

Cosmos 2151 - Pass Details

Date: 24 January 2020
Orbit: 582 x 600 km, 82.5° (Epoch: 26 February)

Event Time Altitude Azimuth Distance (km) Brightness Sun altitude
Rises 17:43:22 0° 190° (S) 2,798 6.8 -25.8°
Reaches altitude 10° 17:45:34 10° 193° (SSW) 1,897 5.9 -26.3°
Enters shadow 17:48:57 51° 226° (SW) 732 3.6 -27.1°
